Change the Weather History Date:

Sunday, March 24, 2013

  Actual Average (KTRI) Record (KTRI)
Temperature  
Mean Temperature 45 °F 49 °F  
Max Temperature 51 °F 62 °F 80 °F (1949)
Min Temperature 39 °F 36 °F 21 °F (1940)
Degree Days  
Heating Degree Days 20 16  
Month to date heating degree days 462  
Since 1 July heating degree days 3844  
Cooling Degree Days 0 0  
Month to date cooling degree days 0  
Year to date cooling degree days 0  
Moisture  
Dew Point 38 °F    
Average Humidity 78    
Maximum Humidity 100    
Minimum Humidity 57    
Precipitation  
Precipitation 0.00 in 0.11 in 0.78 in (2013)
Month to date precipitation 2.64  
Year to date precipitation 9.46  
Snow  
Snow 0.00 in 0.10 in - ()
Month to date snowfall 1.2  
Since 1 July snowfall 12.0  
Snow Depth -    
Sea Level Pressure  
Sea Level Pressure 29.62 in    
Wind  
Wind Speed 9 mph (East)    
Max Wind Speed 16 mph    
Max Gust Speed -    
Visibility 9 miles    
Events Rain    
T = Trace of Precipitation, MM = Missing Value Source: NWS Daily Summary

Daily Weather History Graph

Daily Weather History Graph

Search for Another Location

Airport or City:

Trip Planner

Search our weather history database for the weather conditions in past years. The results will help you decide how hot, cold, wet, or windy it might be!

Date:

Astronomy

Mar. 24, 2013 Rise Set
Actual Time 7:26 AM EDT 7:44 PM EDT
Civil Twilight 7:00 AM EDT 8:09 PM EDT
Nautical Twilight 6:30 AM EDT 8:40 PM EDT
Astronomical Twilight 5:59 AM EDT 9:10 PM EDT
Moon 5:14 PM EDT (3/24) 5:31 AM EDT (3/24)
Length of Visible Light 13h 09m
Length of Day
12h 18m
Waxing Gibbous, 91% of the Moon is Illuminated
Mar 24
Waxing Gibbous
Mar 27
Full
Apr 3
Last Quarter
Apr 10
New
Apr 18
First Quarter

Hourly Weather History & Observations

Time (EDT) Temp. Windchill Dew Point Humidity Pressure Visibility Wind Dir Wind Speed Gust Speed Precip Events Conditions
12:15 AM 44.6 °F 40.7 °F 35.6 °F 71% 29.81 in 10.0 mi East 6.9 mph - N/A   Clear
12:35 AM 46.4 °F 41.9 °F 35.6 °F 66% 29.80 in 10.0 mi ENE 9.2 mph - N/A   Partly Cloudy
12:55 AM 46.4 °F 41.5 °F 33.8 °F 62% 29.79 in 10.0 mi East 10.4 mph - N/A   Clear
1:15 AM 46.4 °F 42.9 °F 32.0 °F 57% 29.81 in 10.0 mi ESE 6.9 mph - N/A   Clear
1:35 AM 46.4 °F 41.1 °F 32.0 °F 57% 29.82 in 10.0 mi East 11.5 mph - N/A   Clear
1:55 AM 46.4 °F 42.4 °F 32.0 °F 57% 29.83 in 10.0 mi ENE 8.1 mph - N/A   Partly Cloudy
2:15 AM 46.4 °F 42.9 °F 32.0 °F 57% 29.85 in 10.0 mi East 6.9 mph - N/A   Partly Cloudy
2:35 AM 46.4 °F 41.9 °F 32.0 °F 57% 29.83 in 10.0 mi ENE 9.2 mph - N/A   Partly Cloudy
2:55 AM 46.4 °F 41.5 °F 32.0 °F 57% 29.82 in 10.0 mi ENE 10.4 mph - N/A   Scattered Clouds
3:15 AM 46.4 °F 42.4 °F 33.8 °F 62% 29.81 in 9.0 mi East 8.1 mph - N/A Rain Light Rain
3:35 AM 44.6 °F 39.7 °F 35.6 °F 71% 29.80 in 10.0 mi ENE 9.2 mph - N/A Rain Light Rain
3:55 AM 44.6 °F 39.2 °F 37.4 °F 76% 29.78 in 10.0 mi East 10.4 mph - N/A Rain Light Rain
4:15 AM 44.6 °F 38.8 °F 35.6 °F 71% 29.77 in 10.0 mi East 11.5 mph - N/A Rain Light Rain
4:35 AM 42.8 °F 38.6 °F 37.4 °F 81% 29.75 in 8.0 mi ENE 6.9 mph - N/A Rain Light Rain
4:55 AM 42.8 °F 39.3 °F 37.4 °F 81% 29.75 in 8.0 mi ENE 5.8 mph - N/A Rain Light Rain
5:15 AM 42.8 °F 36.6 °F 37.4 °F 81% 29.75 in 7.0 mi East 11.5 mph - N/A Rain Light Rain
5:35 AM 42.8 °F 37.5 °F 37.4 °F 81% 29.74 in 8.0 mi East 9.2 mph - N/A Rain Light Rain
5:55 AM 42.8 °F 35.8 °F 37.4 °F 81% 29.74 in 8.0 mi East 13.8 mph - N/A Rain Light Rain
6:15 AM 42.8 °F 37.0 °F 37.4 °F 81% 29.72 in 5.0 mi ENE 10.4 mph - N/A Rain Rain
6:35 AM 42.8 °F 37.0 °F 39.2 °F 87% 29.70 in 7.0 mi East 10.4 mph - N/A Rain Rain
6:55 AM 42.8 °F 37.5 °F 37.4 °F 81% 29.69 in 6.0 mi ENE 9.2 mph - N/A Rain Rain
7:15 AM 42.8 °F 38.0 °F 37.4 °F 81% 29.68 in 8.0 mi ENE 8.1 mph - N/A Rain Rain
7:35 AM 42.8 °F 38.6 °F 37.4 °F 81% 29.70 in 5.0 mi Variable 6.9 mph - N/A Rain Rain
7:55 AM 42.8 °F 36.6 °F 39.2 °F 87% 29.70 in 6.0 mi East 11.5 mph - N/A Rain Rain
8:15 AM 42.8 °F 37.5 °F 39.2 °F 87% 29.70 in 6.0 mi East 9.2 mph - N/A Rain Rain
8:35 AM 42.8 °F 37.5 °F 39.2 °F 87% 29.70 in 6.0 mi East 9.2 mph - N/A Rain Rain
8:55 AM 42.8 °F 36.6 °F 39.2 °F 87% 29.69 in 7.0 mi East 11.5 mph - N/A Rain Heavy Rain
9:15 AM 41.0 °F 37.1 °F 39.2 °F 93% 29.70 in 6.0 mi East 5.8 mph - N/A Rain Rain
9:35 AM 41.0 °F 35.2 °F 39.2 °F 93% 29.69 in 9.0 mi East 9.2 mph - N/A Rain Heavy Rain
9:55 AM 41.0 °F 34.7 °F 39.2 °F 93% 29.68 in 7.0 mi East 10.4 mph - N/A Rain Light Rain
10:15 AM 42.8 °F 35.8 °F 37.4 °F 81% 29.66 in 10.0 mi East 13.8 mph - N/A   Light Drizzle
10:35 AM 42.8 °F 35.8 °F 37.4 °F 81% 29.65 in 9.0 mi East 13.8 mph - N/A Rain Light Rain
10:55 AM 42.8 °F 35.4 °F 37.4 °F 81% 29.64 in 10.0 mi East 15.0 mph - N/A Rain Light Rain
11:15 AM 42.8 °F 35.8 °F 37.4 °F 81% 29.63 in 10.0 mi East 13.8 mph - N/A Rain Light Rain
11:35 AM 42.8 °F 36.6 °F 37.4 °F 81% 29.62 in 10.0 mi ENE 11.5 mph - N/A Rain Light Rain
11:55 AM 42.8 °F 36.6 °F 35.6 °F 76% 29.63 in 10.0 mi East 11.5 mph - N/A   Light Drizzle
12:15 PM 42.8 °F 35.4 °F 37.4 °F 81% 29.62 in 7.0 mi East 15.0 mph - N/A Rain Light Rain
12:35 PM 42.8 °F 36.6 °F 37.4 °F 81% 29.61 in 7.0 mi East 11.5 mph - N/A Rain Light Rain
12:55 PM 42.8 °F 36.2 °F 37.4 °F 81% 29.60 in 10.0 mi East 12.7 mph - N/A Rain Light Rain
1:15 PM 42.8 °F 38.0 °F 37.4 °F 81% 29.60 in 5.0 mi ESE 8.1 mph - N/A Rain Rain
1:35 PM 41.0 °F 38.0 °F 37.4 °F 87% 29.61 in 6.0 mi ESE 4.6 mph - N/A Rain Rain
1:55 PM 39.2 °F 34.2 °F 37.4 °F 93% 29.60 in 6.0 mi ESE 6.9 mph - N/A Rain Rain
2:15 PM 39.2 °F 33.6 °F 39.2 °F 100% 29.58 in 5.0 mi East 8.1 mph - N/A Rain Light Rain
2:35 PM 42.8 °F 37.0 °F 41.0 °F 93% 29.55 in 10.0 mi East 10.4 mph - N/A   Light Drizzle
2:55 PM 46.4 °F 40.7 °F 42.8 °F 87% 29.52 in 10.0 mi ENE 12.7 mph - N/A   Mostly Cloudy
3:15 PM 48.2 °F - 41.0 °F 76% 29.52 in 10.0 mi ENE 11.5 mph - N/A   Mostly Cloudy
3:35 PM 48.2 °F - 41.0 °F 76% 29.50 in 10.0 mi ENE 10.4 mph - N/A   Overcast
3:55 PM 50.0 °F - 41.0 °F 71% 29.48 in 10.0 mi ENE 10.4 mph - N/A   Scattered Clouds
4:15 PM 51.8 °F - 41.0 °F 67% 29.47 in 10.0 mi East 11.5 mph - N/A   Clear
4:35 PM 51.8 °F - 41.0 °F 67% 29.45 in 10.0 mi ENE 11.5 mph - N/A   Clear
4:55 PM 51.8 °F - 42.8 °F 71% 29.45 in 10.0 mi ENE 13.8 mph - N/A   Clear
5:15 PM 51.8 °F - 42.8 °F 71% 29.43 in 10.0 mi East 12.7 mph - N/A   Clear
5:35 PM 51.8 °F - 42.8 °F 71% 29.42 in 10.0 mi East 10.4 mph - N/A   Clear
5:55 PM 51.8 °F - 39.2 °F 62% 29.42 in 10.0 mi East 15.0 mph - N/A   Partly Cloudy
6:15 PM 48.2 °F - 39.2 °F 71% 29.43 in 10.0 mi East 11.5 mph - N/A   Mostly Cloudy
6:35 PM 48.2 °F - 39.2 °F 71% 29.44 in 10.0 mi East 9.2 mph - N/A   Overcast
6:55 PM 46.4 °F 41.5 °F 37.4 °F 71% 29.45 in 10.0 mi East 10.4 mph - N/A   Overcast
7:15 PM 46.4 °F 41.1 °F 37.4 °F 71% 29.46 in 10.0 mi East 11.5 mph - N/A   Overcast
7:35 PM 44.6 °F 39.2 °F 35.6 °F 71% 29.46 in 10.0 mi East 10.4 mph - N/A   Overcast
7:55 PM 42.8 °F 36.2 °F 35.6 °F 76% 29.44 in 10.0 mi ENE 12.7 mph - N/A   Mostly Cloudy
8:15 PM 42.8 °F 37.5 °F 35.6 °F 76% 29.44 in 10.0 mi East 9.2 mph - N/A   Light Drizzle
8:35 PM 42.8 °F 37.5 °F 35.6 °F 76% 29.43 in 10.0 mi East 9.2 mph - N/A   Light Drizzle
8:55 PM 42.8 °F 36.2 °F 35.6 °F 76% 29.44 in 10.0 mi East 12.7 mph - N/A   Light Drizzle
9:15 PM 42.8 °F 39.3 °F 35.6 °F 76% 29.44 in 9.0 mi Variable 5.8 mph - N/A Rain Light Rain
9:35 PM 42.8 °F - 39.2 °F 87% 29.47 in 6.0 mi Calm Calm - N/A Rain Rain
9:55 PM 41.0 °F - 39.2 °F 93% 29.50 in 6.0 mi Calm Calm - N/A Rain Heavy Rain
10:15 PM 42.8 °F 35.1 °F 41.0 °F 93% 29.52 in 8.0 mi WNW 16.1 mph - N/A Rain Heavy Rain
10:35 PM 42.8 °F 36.6 °F 39.2 °F 87% 29.53 in 5.0 mi WSW 11.5 mph - N/A Rain Rain
10:55 PM 41.0 °F 36.4 °F 39.2 °F 93% 29.53 in 9.0 mi WSW 6.9 mph - N/A Rain Light Rain
11:15 PM 41.0 °F - 37.4 °F 87% 29.52 in 10.0 mi Calm Calm - N/A   Light Drizzle
11:35 PM 41.0 °F - 39.2 °F 93% 29.51 in 6.0 mi Calm Calm - N/A Rain Rain
11:55 PM 39.2 °F - 39.2 °F 100% 29.50 in 9.0 mi Calm Calm - N/A Rain Light Rain